sat.trackr.live / text

‹ back to catalog

STARLINK-11492 [DTC]

NORAD 62224 · 2024-231G

PAYLOAD ACTIVE UNKNOWN

§ Identity

Operator
Country
US
Launch date
2024-12-05
Launch site
AFWTR
Launch vehicle
Mass (kg)
RCS (m²)

Purposes: comms

External: N2YO · Heavens-Above · Gunter

§ Orbital elements

Epoch: 2026-05-25T04:34:46.716672Z

Period
91.73 min
Inclination
53.1560°
Eccentricity
0.0001095
Mean motion
15.69757604 rev/d
Perigee alt
358.9 km
Apogee alt
360.3 km
Semi-major
6,737.7 km
B*
1.3571e-3
RAAN
84.3915°
Arg perigee
96.3372°
Mean anomaly
263.7771°
Rev number
8,542

§ Raw data

STARLINK-11492 [DTC]1 62224U 24231G   26145.19081848  .00167512  00000+0  13571-2 0  99952 62224  53.1560  84.3915 0001095  96.3372 263.7771 15.69757604 85425

JSON: /api/v1/satellites/62224 · /tle

For live sub-satellite position, see the globe view (requires WebGL).

§ Visibility from observer

Set your observer location to see the next 7 days of passes ≥ 10°. The values pass through the URL so the page stays shareable.

No JS? Fill the form by hand. The geolocation button needs JavaScript.